Location: Hemaruka
(51.7801°N, 111.0917°W)
Time: 08:20:28
(UTC+00:00)

CAS-4B - Pass Details

Date: 03 December 2023
Orbit: 485 x 503 km, 43.0° (Epoch: 24 February)

Event Time Altitude Azimuth Distance (km) Brightness Sun altitude
Rises 02:46:12 0° 257° (WSW) 2,564 ? -31.3°
Reaches altitude 10° 02:48:54 10° 238° (WSW) 1,676 ? -31.7°
Enters shadow 02:49:17 12° 234° (SW) 1,572 ? -31.8°
